Time,TemperatureF,DewpointF,PressureIn,WindDirection,WindDirectionDegrees,WindSpeedMPH,WindSpeedGustMPH,Humidity,HourlyPrecipIn,Conditions,Clouds,dailyrainin,SoftwareType,DateUTC
2013-06-29 00:00:00,70.0,69.4,29.56,West,259,0.0,2.0,98,0.00,,---,0.38,VWS V14.01,2013-06-29 04:00:00,
2013-06-29 00:01:00,70.0,69.4,29.56,West,259,1.0,2.0,98,0.00,,---,0.00,VWS V14.01,2013-06-29 04:01:00,
2013-06-29 00:06:00,70.0,69.4,29.56,West,259,0.0,2.0,98,0.00,,---,0.00,VWS V14.01,2013-06-29 04:06:00,
2013-06-29 00:11:00,70.0,69.4,29.56,West,259,0.0,2.0,98,0.00,,---,0.00,VWS V14.01,2013-06-29 04:11:00,
2013-06-29 00:16:00,70.0,69.4,29.55,West,259,0.0,2.0,98,0.00,,---,0.00,VWS V14.01,2013-06-29 04:16:00,
2013-06-29 00:21:00,69.9,69.3,29.55,West,259,0.0,2.0,98,0.00,,---,0.00,VWS V14.01,2013-06-29 04:21:00,
2013-06-29 00:26:00,69.8,69.2,29.55,West,259,0.0,2.0,98,0.00,,---,0.00,VWS V14.01,2013-06-29 04:26:00,
2013-06-29 00:30:00,69.7,69.1,29.55,West,259,0.0,2.0,98,0.00,,---,0.00,VWS V14.01,2013-06-29 04:30:00,
2013-06-29 00:31:00,69.8,69.2,29.55,West,259,0.0,0.0,98,0.00,,---,0.00,VWS V14.01,2013-06-29 04:31:00,
2013-06-29 00:36:00,69.6,69.0,29.55,West,259,0.0,0.0,98,0.00,,---,0.00,VWS V14.01,2013-06-29 04:36:00,
2013-06-29 00:41:00,69.5,68.9,29.54,West,259,0.0,0.0,98,0.00,,---,0.00,VWS V14.01,2013-06-29 04:41:00,
2013-06-29 00:46:00,69.3,68.7,29.54,West,259,0.0,0.0,98,0.00,,---,0.00,VWS V14.01,2013-06-29 04:46:00,
2013-06-29 00:51:00,69.3,68.7,29.54,West,259,0.0,0.0,98,0.00,,---,0.00,VWS V14.01,2013-06-29 04:51:00,
2013-06-29 00:56:00,69.2,68.6,29.54,West,259,0.0,0.0,98,0.00,,---,0.00,VWS V14.01,2013-06-29 04:56:00,
2013-06-29 01:00:00,69.0,68.4,29.54,West,259,0.0,0.0,98,0.00,,---,0.00,VWS V14.01,2013-06-29 05:00:00,
2013-06-29 01:01:00,69.1,68.5,29.54,West,259,0.0,0.0,98,0.00,,---,0.00,VWS V14.01,2013-06-29 05:01:00,
2013-06-29 01:06:00,69.0,68.4,29.54,West,259,0.0,0.0,98,0.00,,---,0.00,VWS V14.01,2013-06-29 05:06:00,
2013-06-29 01:11:00,68.9,68.3,29.54,West,259,0.0,0.0,98,0.00,,---,0.00,VWS V14.01,2013-06-29 05:11:00,
2013-06-29 01:16:00,68.7,68.1,29.53,West,259,0.0,0.0,98,0.00,,---,0.00,VWS V14.01,2013-06-29 05:16:00,
2013-06-29 01:21:00,68.7,68.1,29.53,West,259,0.0,0.0,98,0.00,,---,0.00,VWS V14.01,2013-06-29 05:21:00,
2013-06-29 01:26:00,68.7,68.1,29.53,West,259,0.0,0.0,98,0.00,,---,0.00,VWS V14.01,2013-06-29 05:26:00,
2013-06-29 01:30:00,68.6,68.0,29.53,West,259,0.0,0.0,98,0.00,,---,0.00,VWS V14.01,2013-06-29 05:30:00,
2013-06-29 01:31:00,68.6,68.0,29.53,West,259,0.0,0.0,98,0.00,,---,0.00,VWS V14.01,2013-06-29 05:31:00,
2013-06-29 01:32:00,68.6,68.0,29.53,West,259,0.0,0.0,98,0.00,,---,0.00,VWS V14.01,2013-06-29 05:32:00,
2013-06-29 01:37:00,68.4,67.8,29.52,West,259,0.0,0.0,98,0.00,,---,0.00,VWS V14.01,2013-06-29 05:37:00,
2013-06-29 01:42:00,68.4,67.8,29.53,West,259,0.0,0.0,98,0.00,,---,0.00,VWS V14.01,2013-06-29 05:42:00,
2013-06-29 01:47:00,68.4,67.8,29.53,West,259,0.0,0.0,98,0.00,,---,0.00,VWS V14.01,2013-06-29 05:47:00,
2013-06-29 01:52:00,68.4,67.8,29.53,West,259,0.0,1.0,98,0.00,,---,0.00,VWS V14.01,2013-06-29 05:52:00,
2013-06-29 01:57:00,68.4,67.8,29.53,West,259,0.0,1.0,98,0.00,,---,0.00,VWS V14.01,2013-06-29 05:57:00,
2013-06-29 02:00:00,68.4,67.8,29.52,West,259,0.0,1.0,98,0.00,,---,0.00,VWS V14.01,2013-06-29 06:00:00,
2013-06-29 02:02:00,68.4,67.8,29.52,West,259,0.0,0.0,98,0.00,,---,0.00,VWS V14.01,2013-06-29 06:02:00,
2013-06-29 02:07:00,68.3,67.7,29.52,West,259,0.0,0.0,98,0.00,,---,0.00,VWS V14.01,2013-06-29 06:07:00,
2013-06-29 02:12:00,68.2,67.6,29.51,West,259,0.0,0.0,98,0.00,,---,0.00,VWS V14.01,2013-06-29 06:12:00,
2013-06-29 02:17:00,68.1,67.5,29.52,West,259,0.0,0.0,98,0.00,,---,0.00,VWS V14.01,2013-06-29 06:17:00,
2013-06-29 02:22:00,68.1,67.5,29.52,West,259,0.0,0.0,98,0.00,,---,0.00,VWS V14.01,2013-06-29 06:22:00,
2013-06-29 02:27:00,68.1,67.5,29.52,West,259,0.0,0.0,98,0.00,,---,0.00,VWS V14.01,2013-06-29 06:27:00,
2013-06-29 02:30:00,68.0,67.4,29.52,West,259,0.0,0.0,98,0.00,,---,0.00,VWS V14.01,2013-06-29 06:30:00,
2013-06-29 02:32:00,67.9,67.3,29.52,West,259,0.0,0.0,98,0.00,,---,0.00,VWS V14.01,2013-06-29 06:32:00,
2013-06-29 02:37:00,67.8,67.2,29.52,West,259,0.0,0.0,98,0.00,,---,0.00,VWS V14.01,2013-06-29 06:37:00,
2013-06-29 02:42:00,67.9,67.3,29.52,West,259,0.0,0.0,98,0.00,,---,0.00,VWS V14.01,2013-06-29 06:42:00,
2013-06-29 02:47:00,67.9,67.3,29.52,West,259,0.0,1.0,98,0.00,,---,0.00,VWS V14.01,2013-06-29 06:47:00,
2013-06-29 02:52:00,67.9,67.3,29.52,West,259,0.0,1.0,98,0.00,,---,0.00,VWS V14.01,2013-06-29 06:52:00,
2013-06-29 02:57:00,67.8,67.2,29.52,West,259,0.0,1.0,98,0.00,,---,0.00,VWS V14.01,2013-06-29 06:57:00,
2013-06-29 03:00:00,68.4,67.8,29.52,West,259,0.0,1.0,98,0.00,,---,0.00,VWS V14.01,2013-06-29 07:00:00,
2013-06-29 03:02:00,67.7,67.1,29.52,West,259,0.0,0.0,98,0.00,,---,0.00,VWS V14.01,2013-06-29 07:02:00,
2013-06-29 03:07:00,67.6,67.0,29.52,West,259,0.0,0.0,98,0.00,,---,0.00,VWS V14.01,2013-06-29 07:07:00,
2013-06-29 03:12:00,67.7,67.1,29.52,West,259,0.0,0.0,98,0.00,,---,0.00,VWS V14.01,2013-06-29 07:12:00,
2013-06-29 03:17:00,67.6,67.0,29.52,West,259,0.0,0.0,98,0.00,,---,0.00,VWS V14.01,2013-06-29 07:17:00,
2013-06-29 03:22:00,67.5,66.9,29.52,West,259,0.0,0.0,98,0.00,,---,0.00,VWS V14.01,2013-06-29 07:22:00,
2013-06-29 03:27:00,67.4,66.8,29.52,West,259,0.0,0.0,98,0.00,,---,0.00,VWS V14.01,2013-06-29 07:27:00,
2013-06-29 03:30:00,67.3,66.7,29.52,West,259,0.0,0.0,98,0.00,,---,0.00,VWS V14.01,2013-06-29 07:30:00,
2013-06-29 03:32:00,67.2,66.6,29.52,West,259,0.0,0.0,98,0.00,,---,0.00,VWS V14.01,2013-06-29 07:32:00,
2013-06-29 03:37:00,67.2,66.6,29.52,West,259,0.0,0.0,98,0.00,,---,0.00,VWS V14.01,2013-06-29 07:37:00,
2013-06-29 03:42:00,67.2,66.6,29.52,West,259,0.0,0.0,98,0.00,,---,0.00,VWS V14.01,2013-06-29 07:42:00,
2013-06-29 03:47:00,67.1,66.5,29.52,West,259,0.0,0.0,98,0.00,,---,0.00,VWS V14.01,2013-06-29 07:47:00,
2013-06-29 03:52:00,67.1,66.5,29.53,West,259,0.0,0.0,98,0.00,,---,0.00,VWS V14.01,2013-06-29 07:52:00,
2013-06-29 03:57:00,67.0,66.4,29.53,West,259,0.0,0.0,98,0.00,,---,0.00,VWS V14.01,2013-06-29 07:57:00,
2013-06-29 04:00:00,67.1,66.5,29.52,West,259,0.0,0.0,98,0.00,,---,0.00,VWS V14.01,2013-06-29 08:00:00,
2013-06-29 04:02:00,67.1,66.5,29.52,West,259,0.0,0.0,98,0.00,,---,0.00,VWS V14.01,2013-06-29 08:02:00,
2013-06-29 04:07:00,67.0,66.4,29.52,West,259,0.0,0.0,98,0.00,,---,0.00,VWS V14.01,2013-06-29 08:07:00,
2013-06-29 04:12:00,67.0,66.4,29.52,West,259,0.0,0.0,98,0.00,,---,0.00,VWS V14.01,2013-06-29 08:12:00,
2013-06-29 04:17:00,67.0,66.4,29.52,West,259,0.0,0.0,98,0.00,,---,0.00,VWS V14.01,2013-06-29 08:17:00,
2013-06-29 04:22:00,67.1,66.5,29.52,West,259,0.0,0.0,98,0.00,,---,0.00,VWS V14.01,2013-06-29 08:22:00,
2013-06-29 04:27:00,66.9,66.3,29.53,West,259,0.0,0.0,98,0.00,,---,0.00,VWS V14.01,2013-06-29 08:27:00,
2013-06-29 04:30:00,66.8,66.2,29.53,West,259,0.0,0.0,98,0.00,,---,0.00,VWS V14.01,2013-06-29 08:30:00,
2013-06-29 04:32:00,66.7,66.1,29.53,West,259,0.0,0.0,98,0.00,,---,0.00,VWS V14.01,2013-06-29 08:32:00,
2013-06-29 04:37:00,66.7,66.1,29.53,West,259,0.0,0.0,98,0.00,,---,0.00,VWS V14.01,2013-06-29 08:37:00,
2013-06-29 04:42:00,66.7,66.1,29.54,West,259,0.0,0.0,98,0.00,,---,0.00,VWS V14.01,2013-06-29 08:42:00,
2013-06-29 04:46:00,66.6,66.0,29.54,West,259,0.0,0.0,98,0.00,,---,0.00,VWS V14.01,2013-06-29 08:46:00,
2013-06-29 04:51:00,66.7,66.1,29.54,West,259,0.0,0.0,98,0.00,,---,0.00,VWS V14.01,2013-06-29 08:51:00,
2013-06-29 04:56:00,66.9,66.3,29.54,West,259,0.0,0.0,98,0.00,,---,0.00,VWS V14.01,2013-06-29 08:56:00,
2013-06-29 05:00:00,66.9,66.3,29.54,West,259,0.0,0.0,98,0.00,,---,0.00,VWS V14.01,2013-06-29 09:00:00,
2013-06-29 05:01:00,66.9,66.3,29.54,West,259,0.0,0.0,98,0.00,,---,0.00,VWS V14.01,2013-06-29 09:01:00,
2013-06-29 05:06:00,66.8,66.2,29.54,West,259,0.0,0.0,98,0.00,,---,0.00,VWS V14.01,2013-06-29 09:06:00,
2013-06-29 05:11:00,66.7,66.1,29.54,West,259,0.0,0.0,98,0.00,,---,0.00,VWS V14.01,2013-06-29 09:11:00,
2013-06-29 05:16:00,66.6,66.0,29.54,West,259,0.0,0.0,98,0.00,,---,0.00,VWS V14.01,2013-06-29 09:16:00,
2013-06-29 05:21:00,66.5,65.9,29.54,West,259,0.0,0.0,98,0.00,,---,0.00,VWS V14.01,2013-06-29 09:21:00,
2013-06-29 05:26:00,66.3,65.7,29.54,West,259,0.0,0.0,98,0.00,,---,0.00,VWS V14.01,2013-06-29 09:26:00,
2013-06-29 05:30:00,66.3,65.7,29.54,West,259,0.0,0.0,98,0.00,,---,0.00,VWS V14.01,2013-06-29 09:30:00,
2013-06-29 05:31:00,66.3,65.7,29.54,West,259,0.0,0.0,98,0.00,,---,0.00,VWS V14.01,2013-06-29 09:31:00,
2013-06-29 05:36:00,66.2,65.6,29.55,West,259,0.0,0.0,98,0.00,,---,0.00,VWS V14.01,2013-06-29 09:36:00,
2013-06-29 05:41:00,66.2,65.6,29.55,West,259,0.0,0.0,98,0.00,,---,0.00,VWS V14.01,2013-06-29 09:41:00,
2013-06-29 05:46:00,66.1,65.5,29.55,West,259,0.0,0.0,98,0.00,,---,0.00,VWS V14.01,2013-06-29 09:46:00,
2013-06-29 05:51:00,66.1,65.8,29.55,West,259,0.0,0.0,99,0.00,,---,0.00,VWS V14.01,2013-06-29 09:51:00,
2013-06-29 05:56:00,66.0,65.7,29.55,West,259,0.0,0.0,99,0.00,,---,0.00,VWS V14.01,2013-06-29 09:56:00,
2013-06-29 06:00:00,66.0,65.7,29.55,West,259,0.0,0.0,99,0.00,,---,0.00,VWS V14.01,2013-06-29 10:00:00,
2013-06-29 06:01:00,66.0,65.7,29.55,West,259,0.0,0.0,99,0.00,,---,0.00,VWS V14.01,2013-06-29 10:01:00,
2013-06-29 06:06:00,66.0,65.7,29.55,West,259,0.0,0.0,99,0.00,,---,0.00,VWS V14.01,2013-06-29 10:06:00,
2013-06-29 06:11:00,65.9,65.3,29.55,West,259,0.0,0.0,98,0.00,,---,0.00,VWS V14.01,2013-06-29 10:11:00,
2013-06-29 06:16:00,66.0,65.7,29.55,West,259,0.0,0.0,99,0.00,,---,0.00,VWS V14.01,2013-06-29 10:16:00,
2013-06-29 06:21:00,65.9,65.3,29.55,West,259,0.0,0.0,98,0.00,,---,0.00,VWS V14.01,2013-06-29 10:21:00,
2013-06-29 06:26:00,66.0,65.7,29.56,West,259,0.0,0.0,99,0.00,,---,0.00,VWS V14.01,2013-06-29 10:26:00,
2013-06-29 06:30:00,66.1,65.8,29.56,West,259,0.0,0.0,99,0.00,,---,0.00,VWS V14.01,2013-06-29 10:30:00,
2013-06-29 06:31:00,66.1,65.8,29.56,West,259,0.0,0.0,99,0.00,,---,0.00,VWS V14.01,2013-06-29 10:31:00,
2013-06-29 06:36:00,66.2,65.9,29.56,West,259,0.0,0.0,99,0.00,,---,0.00,VWS V14.01,2013-06-29 10:36:00,
2013-06-29 06:41:00,66.3,66.0,29.56,West,259,0.0,0.0,99,0.00,,---,0.00,VWS V14.01,2013-06-29 10:41:00,
2013-06-29 06:46:00,66.6,66.3,29.56,West,259,0.0,0.0,99,0.00,,---,0.00,VWS V14.01,2013-06-29 10:46:00,
2013-06-29 06:51:00,66.7,66.4,29.56,West,259,0.0,0.0,99,0.00,,---,0.00,VWS V14.01,2013-06-29 10:51:00,
2013-06-29 06:57:00,67.1,66.8,29.56,West,259,0.0,0.0,99,0.00,,---,0.00,VWS V14.01,2013-06-29 10:57:00,
2013-06-29 07:00:00,67.2,66.9,29.56,West,259,0.0,0.0,99,0.00,,---,0.00,VWS V14.01,2013-06-29 11:00:00,
2013-06-29 07:02:00,67.2,66.9,29.56,West,259,0.0,0.0,99,0.00,,---,0.00,VWS V14.01,2013-06-29 11:02:00,
2013-06-29 07:07:00,67.3,67.0,29.56,West,259,0.0,0.0,99,0.00,,---,0.00,VWS V14.01,2013-06-29 11:07:00,
2013-06-29 07:12:00,67.4,67.1,29.56,West,259,0.0,0.0,99,0.00,,---,0.00,VWS V14.01,2013-06-29 11:12:00,
2013-06-29 07:16:00,67.5,67.2,29.57,West,259,0.0,0.0,99,0.00,,---,0.00,VWS V14.01,2013-06-29 11:16:00,
2013-06-29 07:22:00,67.7,67.4,29.57,West,259,0.0,0.0,99,0.00,,---,0.00,VWS V14.01,2013-06-29 11:22:00,
2013-06-29 07:26:00,68.1,67.8,29.57,West,259,0.0,0.0,99,0.00,,---,0.00,VWS V14.01,2013-06-29 11:26:00,
2013-06-29 07:30:00,68.3,68.0,29.58,West,259,0.0,0.0,99,0.00,,---,0.00,VWS V14.01,2013-06-29 11:30:00,
2013-06-29 07:35:00,68.3,68.0,29.58,West,259,0.0,0.0,99,0.00,,---,0.00,VWS V14.01,2013-06-29 11:35:00,
2013-06-29 07:40:00,68.5,68.2,29.57,West,259,0.0,0.0,99,0.00,,---,0.00,VWS V14.01,2013-06-29 11:40:00,
2013-06-29 07:45:00,69.4,69.1,29.57,West,259,0.0,0.0,99,0.00,,---,0.00,VWS V14.01,2013-06-29 11:45:00,
2013-06-29 07:50:00,70.1,69.8,29.57,West,259,0.0,0.0,99,0.00,,---,0.00,VWS V14.01,2013-06-29 11:50:00,
2013-06-29 07:55:00,70.2,69.9,29.58,West,259,0.0,0.0,99,0.00,,---,0.00,VWS V14.01,2013-06-29 11:55:00,
2013-06-29 08:00:00,70.5,70.2,29.58,West,259,0.0,1.0,99,0.00,,---,0.00,VWS V14.01,2013-06-29 12:00:00,
2013-06-29 08:05:00,70.6,70.3,29.58,West,259,0.0,0.0,99,0.00,,---,0.00,VWS V14.01,2013-06-29 12:05:00,
2013-06-29 08:10:00,70.5,70.2,29.59,West,259,0.0,0.0,99,0.00,,---,0.00,VWS V14.01,2013-06-29 12:10:00,
2013-06-29 08:15:00,70.8,70.5,29.59,West,259,0.0,0.0,99,0.00,,---,0.00,VWS V14.01,2013-06-29 12:15:00,
2013-06-29 08:20:00,72.1,71.8,29.59,West,259,0.0,1.0,99,0.00,,---,0.00,VWS V14.01,2013-06-29 12:20:00,
2013-06-29 08:25:00,72.1,71.8,29.59,WSW,252,0.0,2.0,99,0.00,,---,0.00,VWS V14.01,2013-06-29 12:25:00,
2013-06-29 08:30:00,72.6,72.3,29.59,WSW,252,0.0,2.0,99,0.00,,---,0.00,VWS V14.01,2013-06-29 12:30:00,
2013-06-29 08:35:00,72.8,72.5,29.60,WSW,252,0.0,1.0,99,0.00,,---,0.00,VWS V14.01,2013-06-29 12:35:00,
2013-06-29 08:40:00,73.4,72.8,29.60,WSW,252,0.0,1.0,98,0.00,,---,0.00,VWS V14.01,2013-06-29 12:40:00,
2013-06-29 08:45:00,73.9,73.3,29.60,WSW,252,0.0,2.0,98,0.00,,---,0.00,VWS V14.01,2013-06-29 12:45:00,
2013-06-29 08:50:00,73.6,72.7,29.60,WNW,290,0.0,2.0,97,0.00,,---,0.00,VWS V14.01,2013-06-29 12:50:00,
2013-06-29 08:55:00,73.9,73.0,29.60,WNW,290,1.0,2.0,97,0.00,,---,0.00,VWS V14.01,2013-06-29 12:55:00,
2013-06-29 09:00:00,74.4,73.2,29.60,WSW,255,0.0,3.0,96,0.00,,---,0.00,VWS V14.01,2013-06-29 13:00:00,
2013-06-29 09:05:00,75.0,73.5,29.60,WSW,255,0.0,2.0,95,0.00,,---,0.00,VWS V14.01,2013-06-29 13:05:00,
2013-06-29 09:10:00,75.7,73.5,29.60,WSW,255,0.0,2.0,93,0.00,,---,0.00,VWS V14.01,2013-06-29 13:10:00,
2013-06-29 09:15:00,76.6,73.4,29.60,WSW,255,0.0,2.0,90,0.00,,---,0.00,VWS V14.01,2013-06-29 13:15:00,
2013-06-29 09:20:00,77.5,74.3,29.60,WSW,255,0.0,2.0,90,0.00,,---,0.00,VWS V14.01,2013-06-29 13:20:00,
2013-06-29 09:25:00,78.1,74.6,29.60,West,264,0.0,2.0,89,0.00,,---,0.00,VWS V14.01,2013-06-29 13:25:00,
2013-06-29 09:30:00,78.2,73.7,29.60,WSW,258,0.0,0.0,86,0.00,,---,0.00,VWS V14.01,2013-06-29 13:30:00,
2013-06-29 09:35:00,77.9,73.7,29.60,WNW,296,0.0,3.0,87,0.00,,---,0.00,VWS V14.01,2013-06-29 13:35:00,
2013-06-29 09:40:00,78.1,74.6,29.60,West,280,0.0,3.0,89,0.01,,---,0.01,VWS V14.01,2013-06-29 13:40:00,
2013-06-29 09:45:00,78.4,74.2,29.60,West,280,0.0,3.0,87,0.01,,---,0.01,VWS V14.01,2013-06-29 13:45:00,
2013-06-29 09:50:00,78.9,74.0,29.60,West,280,0.0,3.0,85,0.01,,---,0.01,VWS V14.01,2013-06-29 13:50:00,
2013-06-29 09:55:00,79.5,74.6,29.60,West,280,0.0,3.0,85,0.01,,---,0.01,VWS V14.01,2013-06-29 13:55:00,
2013-06-29 10:00:00,79.7,73.7,29.60,West,281,2.0,3.0,82,0.01,,---,0.01,VWS V14.01,2013-06-29 14:00:00,
2013-06-29 10:05:00,79.7,74.8,29.60,West,281,1.0,2.0,85,0.01,,---,0.01,VWS V14.01,2013-06-29 14:05:00,
2013-06-29 10:10:00,80.0,74.7,29.60,West,281,0.0,2.0,84,0.01,,---,0.01,VWS V14.01,2013-06-29 14:10:00,
2013-06-29 10:15:00,80.8,74.4,29.60,WSW,238,1.0,3.0,81,0.01,,---,0.01,VWS V14.01,2013-06-29 14:15:00,
2013-06-29 10:20:00,81.0,73.9,29.60,WSW,238,0.0,3.0,79,0.01,,---,0.01,VWS V14.01,2013-06-29 14:20:00,
2013-06-29 10:25:00,81.0,74.6,29.60,WNW,286,0.0,3.0,81,0.01,,---,0.01,VWS V14.01,2013-06-29 14:25:00,
2013-06-29 10:30:00,80.9,73.4,29.60,NW,319,0.0,3.0,78,0.01,,---,0.01,VWS V14.01,2013-06-29 14:30:00,
2013-06-29 10:35:00,80.9,73.4,29.60,WSW,257,1.0,4.0,78,0.01,,---,0.01,VWS V14.01,2013-06-29 14:35:00,
2013-06-29 10:40:00,82.4,73.3,29.60,WNW,283,0.0,4.0,74,0.01,,---,0.01,VWS V14.01,2013-06-29 14:40:00,
2013-06-29 10:45:00,82.8,74.1,29.60,WNW,289,0.0,4.0,75,0.01,,---,0.01,VWS V14.01,2013-06-29 14:45:00,
2013-06-29 10:50:00,82.5,73.4,29.60,North,358,0.0,4.0,74,0.01,,---,0.01,VWS V14.01,2013-06-29 14:50:00,
2013-06-29 10:55:00,82.5,70.0,29.60,SW,236,0.0,4.0,66,0.01,,---,0.01,VWS V14.01,2013-06-29 14:55:00,
2013-06-29 11:00:00,82.0,68.6,29.60,NNW,327,0.0,0.0,64,0.00,,---,0.01,VWS V14.01,2013-06-29 15:00:00,
2013-06-29 11:05:00,82.8,68.0,29.60,WSW,252,0.0,2.0,61,0.00,,---,0.01,VWS V14.01,2013-06-29 15:05:00,
2013-06-29 11:10:00,82.7,71.5,29.60,WNW,282,0.0,3.0,69,0.00,,---,0.01,VWS V14.01,2013-06-29 15:10:00,
2013-06-29 11:15:00,83.7,68.8,29.60,WSW,246,1.0,3.0,61,0.00,,---,0.01,VWS V14.01,2013-06-29 15:15:00,
2013-06-29 11:20:00,83.5,69.6,29.60,NNW,345,0.0,3.0,63,0.00,,---,0.01,VWS V14.01,2013-06-29 15:20:00,
2013-06-29 11:25:00,83.8,67.0,29.60,NNW,346,0.0,3.0,57,0.00,,---,0.01,VWS V14.01,2013-06-29 15:25:00,
2013-06-29 11:30:00,82.8,68.5,29.60,NW,306,0.0,3.0,62,0.00,,---,0.01,VWS V14.01,2013-06-29 15:30:00,
2013-06-29 11:35:00,83.4,69.5,29.60,NNW,337,0.0,3.0,63,0.00,,---,0.01,VWS V14.01,2013-06-29 15:35:00,
2013-06-29 11:40:00,83.6,71.5,29.60,NNW,337,0.0,3.0,67,0.00,,---,0.01,VWS V14.01,2013-06-29 15:40:00,
2013-06-29 11:45:00,84.0,68.6,29.60,NNW,337,0.0,3.0,60,0.00,,---,0.01,VWS V14.01,2013-06-29 15:45:00,
2013-06-29 11:50:00,84.1,70.2,29.60,NNW,337,0.0,3.0,63,0.00,,---,0.01,VWS V14.01,2013-06-29 15:50:00,
2013-06-29 11:55:00,84.0,67.1,29.60,NNW,337,0.0,3.0,57,0.00,,---,0.01,VWS V14.01,2013-06-29 15:55:00,
2013-06-29 12:00:00,84.6,68.2,29.60,West,274,0.0,3.0,58,0.00,,---,0.01,VWS V14.01,2013-06-29 16:00:00,
2013-06-29 12:05:00,85.1,68.7,29.60,West,275,0.0,2.0,58,0.00,,---,0.01,VWS V14.01,2013-06-29 16:05:00,
2013-06-29 12:10:00,85.8,66.7,29.60,West,264,0.0,2.0,53,0.00,,---,0.01,VWS V14.01,2013-06-29 16:10:00,
2013-06-29 12:15:00,85.7,68.2,29.60,North,356,0.0,4.0,56,0.00,,---,0.01,VWS V14.01,2013-06-29 16:15:00,
2013-06-29 12:20:00,84.8,66.8,29.60,NNW,335,1.0,4.0,55,0.00,,---,0.01,VWS V14.01,2013-06-29 16:20:00,
2013-06-29 12:25:00,85.5,68.0,29.60,WNW,285,0.0,4.0,56,0.00,,---,0.01,VWS V14.01,2013-06-29 16:25:00,
2013-06-29 12:30:00,86.2,68.2,29.59,NNW,339,0.0,4.0,55,0.00,,---,0.01,VWS V14.01,2013-06-29 16:30:00,
2013-06-29 12:35:00,86.3,69.8,29.60,NW,323,1.0,2.0,58,0.00,,---,0.01,VWS V14.01,2013-06-29 16:35:00,
2013-06-29 12:41:00,86.3,66.1,29.59,SSE,166,0.0,4.0,51,0.00,,---,0.01,VWS V14.01,2013-06-29 16:41:00,
2013-06-29 12:46:00,85.9,68.9,29.60,South,191,0.0,4.0,57,0.00,,---,0.01,VWS V14.01,2013-06-29 16:46:00,
2013-06-29 12:51:00,86.6,70.1,29.59,NW,325,2.0,4.0,58,0.00,,---,0.01,VWS V14.01,2013-06-29 16:51:00,
2013-06-29 12:56:00,86.6,65.8,29.60,WNW,284,0.0,4.0,50,0.00,,---,0.01,VWS V14.01,2013-06-29 16:56:00,
2013-06-29 13:00:00,87.1,65.1,29.59,WSW,248,0.0,4.0,48,0.00,,---,0.01,VWS V14.01,2013-06-29 17:00:00,
2013-06-29 13:01:00,87.1,65.1,29.59,WSW,248,0.0,0.0,48,0.00,,---,0.01,VWS V14.01,2013-06-29 17:01:00,
2013-06-29 13:06:00,86.9,68.3,29.59,NW,325,2.0,3.0,54,0.00,,---,0.01,VWS V14.01,2013-06-29 17:06:00,
2013-06-29 13:11:00,87.1,67.9,29.59,WNW,285,1.0,3.0,53,0.00,,---,0.01,VWS V14.01,2013-06-29 17:11:00,
2013-06-29 13:16:00,87.1,64.4,29.59,NNW,345,0.0,3.0,47,0.00,,---,0.01,VWS V14.01,2013-06-29 17:16:00,
2013-06-29 13:21:00,87.8,63.2,29.60,SW,227,0.0,3.0,44,0.00,,---,0.01,VWS V14.01,2013-06-29 17:21:00,
2013-06-29 13:26:00,87.9,63.3,29.60,WSW,255,0.0,3.0,44,0.00,,---,0.01,VWS V14.01,2013-06-29 17:26:00,
2013-06-29 13:30:00,88.3,64.9,29.60,WSW,248,0.0,3.0,46,0.00,,---,0.01,VWS V14.01,2013-06-29 17:30:00,
2013-06-29 13:31:00,88.4,65.0,29.60,WSW,248,1.0,1.0,46,0.00,,---,0.01,VWS V14.01,2013-06-29 17:31:00,
2013-06-29 13:36:00,88.6,63.3,29.60,West,264,1.0,3.0,43,0.00,,---,0.01,VWS V14.01,2013-06-29 17:36:00,
2013-06-29 13:41:00,88.5,63.2,29.60,SSW,204,2.0,3.0,43,0.00,,---,0.01,VWS V14.01,2013-06-29 17:41:00,
2013-06-29 13:45:00,88.6,63.9,29.60,WSW,243,2.0,4.0,44,0.00,,---,0.01,VWS V14.01,2013-06-29 17:45:00,
2013-06-29 13:50:00,88.9,67.3,29.60,WSW,253,1.0,4.0,49,0.00,,---,0.01,VWS V14.01,2013-06-29 17:50:00,
2013-06-29 13:55:00,88.7,65.9,29.60,West,261,1.0,4.0,47,0.00,,---,0.01,VWS V14.01,2013-06-29 17:55:00,
2013-06-29 14:00:00,88.6,65.8,29.60,West,279,0.0,0.0,47,0.00,,---,0.01,VWS V14.01,2013-06-29 18:00:00,
2013-06-29 14:05:00,88.5,64.5,29.60,South,191,1.0,3.0,45,0.00,,---,0.01,VWS V14.01,2013-06-29 18:05:00,
2013-06-29 14:10:00,88.0,62.7,29.60,NW,326,0.0,3.0,43,0.00,,---,0.01,VWS V14.01,2013-06-29 18:10:00,
2013-06-29 14:15:00,87.7,66.2,29.60,West,271,0.0,3.0,49,0.00,,---,0.01,VWS V14.01,2013-06-29 18:15:00,
2013-06-29 14:20:00,88.2,66.1,29.60,NNW,345,0.0,3.0,48,0.00,,---,0.01,VWS V14.01,2013-06-29 18:20:00,
2013-06-29 14:25:00,88.5,67.5,29.59,NNW,335,2.0,3.0,50,0.00,,---,0.01,VWS V14.01,2013-06-29 18:25:00,
2013-06-29 14:30:00,88.0,67.1,29.59,NW,326,1.0,1.0,50,0.00,,---,0.01,VWS V14.01,2013-06-29 18:30:00,
2013-06-29 14:35:00,88.7,68.8,29.59,NW,312,0.0,2.0,52,0.00,,---,0.01,VWS V14.01,2013-06-29 18:35:00,
2013-06-29 14:40:00,89.5,65.4,29.59,WSW,239,2.0,4.0,45,0.00,,---,0.01,VWS V14.01,2013-06-29 18:40:00,
2013-06-29 14:45:00,88.9,66.1,29.60,ENE,70,0.0,4.0,47,0.00,,---,0.01,VWS V14.01,2013-06-29 18:45:00,
2013-06-29 14:50:00,88.9,67.3,29.60,NNW,340,0.0,4.0,49,0.00,,---,0.01,VWS V14.01,2013-06-29 18:50:00,
2013-06-29 14:55:00,88.1,64.7,29.60,NW,308,1.0,4.0,46,0.00,,---,0.01,VWS V14.01,2013-06-29 18:55:00,
2013-06-29 15:00:00,86.7,65.3,29.60,NW,311,0.0,0.0,49,0.00,,---,0.01,VWS V14.01,2013-06-29 19:00:00,
2013-06-29 15:05:00,86.0,65.2,29.60,West,274,1.0,3.0,50,0.00,,---,0.01,VWS V14.01,2013-06-29 19:05:00,
2013-06-29 15:10:00,86.2,65.4,29.60,ENE,77,0.0,3.0,50,0.00,,---,0.01,VWS V14.01,2013-06-29 19:10:00,
2013-06-29 15:15:00,87.2,69.1,29.60,NE,50,0.0,3.0,55,0.00,,---,0.01,VWS V14.01,2013-06-29 19:15:00,
2013-06-29 15:20:00,87.5,67.2,29.60,NW,309,1.0,3.0,51,0.00,,---,0.01,VWS V14.01,2013-06-29 19:20:00,
2013-06-29 15:25:00,86.7,65.9,29.60,ESE,114,0.0,3.0,50,0.00,,---,0.01,VWS V14.01,2013-06-29 19:25:00,
2013-06-29 15:30:00,85.6,66.5,29.60,East,79,1.0,3.0,53,0.00,,---,0.01,VWS V14.01,2013-06-29 19:30:00,
2013-06-29 15:35:00,85.2,67.8,29.60,West,259,0.0,3.0,56,0.00,,---,0.01,VWS V14.01,2013-06-29 19:35:00,
2013-06-29 15:40:00,85.4,67.4,29.60,West,266,2.0,4.0,55,0.00,,---,0.01,VWS V14.01,2013-06-29 19:40:00,
2013-06-29 15:45:00,85.1,66.6,29.60,WSW,244,1.0,4.0,54,0.00,,---,0.01,VWS V14.01,2013-06-29 19:45:00,
2013-06-29 15:50:00,85.7,69.2,29.60,WSW,245,1.0,4.0,58,0.00,,---,0.01,VWS V14.01,2013-06-29 19:50:00,
2013-06-29 15:55:00,86.1,68.1,29.60,WSW,245,0.0,4.0,55,0.00,,---,0.01,VWS V14.01,2013-06-29 19:55:00,
2013-06-29 16:00:00,86.8,67.6,29.60,East,95,0.0,0.0,53,0.00,,---,0.01,VWS V14.01,2013-06-29 20:00:00,
2013-06-29 16:05:00,86.2,70.2,29.60,East,94,0.0,5.0,59,0.00,,---,0.01,VWS V14.01,2013-06-29 20:05:00,
2013-06-29 16:10:00,85.1,71.6,29.60,East,94,1.0,7.0,64,0.00,,---,0.01,VWS V14.01,2013-06-29 20:10:00,
2013-06-29 16:15:00,84.4,71.8,29.60,East,88,1.0,7.0,66,0.00,,---,0.01,VWS V14.01,2013-06-29 20:15:00,
2013-06-29 16:20:00,83.9,72.2,29.60,East,91,0.0,7.0,68,0.00,,---,0.01,VWS V14.01,2013-06-29 20:20:00,
2013-06-29 16:25:00,83.6,72.8,29.60,ENE,78,0.0,7.0,70,0.00,,---,0.01,VWS V14.01,2013-06-29 20:25:00,
2013-06-29 16:30:00,84.2,72.9,29.60,East,88,2.0,7.0,69,0.00,,---,0.01,VWS V14.01,2013-06-29 20:30:00,
2013-06-29 16:35:00,85.0,73.7,29.60,East,99,2.0,5.0,69,0.00,,---,0.01,VWS V14.01,2013-06-29 20:35:00,
2013-06-29 16:40:00,85.2,71.7,29.60,East,96,2.0,6.0,64,0.00,,---,0.01,VWS V14.01,2013-06-29 20:40:00,
2013-06-29 16:45:00,86.1,73.0,29.60,West,276,0.0,6.0,65,0.00,,---,0.01,VWS V14.01,2013-06-29 20:45:00,
2013-06-29 16:50:00,85.4,71.8,29.60,East,90,0.0,6.0,64,0.00,,---,0.01,VWS V14.01,2013-06-29 20:50:00,
2013-06-29 16:55:00,84.4,72.7,29.60,WSW,252,0.0,6.0,68,0.00,,---,0.01,VWS V14.01,2013-06-29 20:55:00,
2013-06-29 17:00:00,84.9,71.8,29.60,West,264,1.0,1.0,65,0.00,,---,0.01,VWS V14.01,2013-06-29 21:00:00,
2013-06-29 17:05:00,85.7,72.1,29.60,SE,146,1.0,3.0,64,0.00,,---,0.01,VWS V14.01,2013-06-29 21:05:00,
2013-06-29 17:10:00,85.7,72.1,29.60,SSE,148,1.0,3.0,64,0.00,,---,0.01,VWS V14.01,2013-06-29 21:10:00,
2013-06-29 17:15:00,85.6,72.9,29.60,ESE,106,0.0,3.0,66,0.00,,---,0.01,VWS V14.01,2013-06-29 21:15:00,
2013-06-29 17:20:00,85.7,71.7,29.60,North,6,0.0,4.0,63,0.00,,---,0.01,VWS V14.01,2013-06-29 21:20:00,
2013-06-29 17:25:00,85.2,71.7,29.60,East,79,1.0,4.0,64,0.00,,---,0.01,VWS V14.01,2013-06-29 21:25:00,
2013-06-29 17:30:00,84.9,71.4,29.60,ESE,106,1.0,1.0,64,0.00,,---,0.01,VWS V14.01,2013-06-29 21:30:00,
2013-06-29 17:35:00,84.8,72.2,29.60,East,90,0.0,3.0,66,0.00,,---,0.01,VWS V14.01,2013-06-29 21:35:00,
2013-06-29 17:40:00,84.3,72.2,29.59,East,91,0.0,5.0,67,0.00,,---,0.01,VWS V14.01,2013-06-29 21:40:00,
2013-06-29 17:45:00,84.1,72.0,29.60,East,96,0.0,5.0,67,0.00,,---,0.01,VWS V14.01,2013-06-29 21:45:00,
2013-06-29 17:50:00,83.8,72.6,29.60,East,86,2.0,5.0,69,0.00,,---,0.01,VWS V14.01,2013-06-29 21:50:00,
2013-06-29 17:55:00,83.4,72.6,29.60,ESE,103,1.0,5.0,70,0.00,,---,0.01,VWS V14.01,2013-06-29 21:55:00,
2013-06-29 18:00:00,83.6,72.4,29.60,ENE,65,1.0,5.0,69,0.00,,---,0.01,VWS V14.01,2013-06-29 22:00:00,
2013-06-29 18:05:00,83.8,72.6,29.60,South,176,0.0,2.0,69,0.00,,---,0.01,VWS V14.01,2013-06-29 22:05:00,
2013-06-29 18:10:00,83.2,72.8,29.60,SE,129,0.0,3.0,71,0.00,,---,0.01,VWS V14.01,2013-06-29 22:10:00,
2013-06-29 18:15:00,83.0,72.6,29.60,East,94,0.0,3.0,71,0.00,,---,0.01,VWS V14.01,2013-06-29 22:15:00,
2013-06-29 18:20:00,83.7,72.9,29.60,East,93,2.0,3.0,70,0.00,,---,0.01,VWS V14.01,2013-06-29 22:20:00,
2013-06-29 18:25:00,83.8,72.6,29.60,West,264,1.0,4.0,69,0.00,,---,0.01,VWS V14.01,2013-06-29 22:25:00,
2013-06-29 18:30:00,83.9,72.7,29.60,East,93,0.0,4.0,69,0.00,,---,0.01,VWS V14.01,2013-06-29 22:30:00,
2013-06-29 18:35:00,83.8,72.6,29.60,East,88,3.0,5.0,69,0.00,,---,0.01,VWS V14.01,2013-06-29 22:35:00,
2013-06-29 18:40:00,83.3,72.1,29.61,East,92,4.0,7.0,69,0.00,,---,0.01,VWS V14.01,2013-06-29 22:40:00,
2013-06-29 18:45:00,83.3,72.5,29.61,ESE,105,2.0,7.0,70,0.00,,---,0.01,VWS V14.01,2013-06-29 22:45:00,
2013-06-29 18:50:00,83.0,72.6,29.61,East,84,1.0,7.0,71,0.00,,---,0.01,VWS V14.01,2013-06-29 22:50:00,
2013-06-29 18:55:00,82.7,72.3,29.61,South,185,1.0,7.0,71,0.00,,---,0.01,VWS V14.01,2013-06-29 22:55:00,
2013-06-29 19:00:00,82.6,72.2,29.61,East,90,1.0,7.0,71,0.00,,---,0.01,VWS V14.01,2013-06-29 23:00:00,
2013-06-29 19:05:00,82.6,72.2,29.61,ESE,116,0.0,4.0,71,0.00,,---,0.01,VWS V14.01,2013-06-29 23:05:00,
2013-06-29 19:10:00,82.5,72.6,29.62,East,86,3.0,4.0,72,0.00,,---,0.01,VWS V14.01,2013-06-29 23:10:00,
2013-06-29 19:15:00,82.3,72.4,29.62,SSW,193,1.0,4.0,72,0.00,,---,0.01,VWS V14.01,2013-06-29 23:15:00,
2013-06-29 19:20:00,82.2,72.7,29.62,West,274,1.0,4.0,73,0.00,,---,0.01,VWS V14.01,2013-06-29 23:20:00,
2013-06-29 19:25:00,82.0,72.9,29.63,ENE,76,3.0,4.0,74,0.00,,---,0.01,VWS V14.01,2013-06-29 23:25:00,
2013-06-29 19:30:00,81.9,72.8,29.63,East,89,0.0,4.0,74,0.00,,---,0.01,VWS V14.01,2013-06-29 23:30:00,
2013-06-29 19:35:00,81.5,72.8,29.63,West,279,1.0,5.0,75,0.00,,---,0.01,VWS V14.01,2013-06-29 23:35:00,
2013-06-29 19:40:00,81.5,72.0,29.63,NE,52,0.0,5.0,73,0.00,,---,0.01,VWS V14.01,2013-06-29 23:40:00,
2013-06-29 19:45:00,81.4,72.3,29.64,East,99,2.0,5.0,74,0.00,,---,0.01,VWS V14.01,2013-06-29 23:45:00,
2013-06-29 19:50:00,81.3,72.6,29.63,East,84,1.0,5.0,75,0.00,,---,0.01,VWS V14.01,2013-06-29 23:50:00,
2013-06-29 19:55:00,81.1,72.4,29.64,SW,225,0.0,5.0,75,0.00,,---,0.01,VWS V14.01,2013-06-29 23:55:00,
2013-06-29 20:00:00,80.8,72.5,29.64,ESE,103,1.0,5.0,76,0.00,,---,0.01,VWS V14.01,2013-06-30 00:00:00,
2013-06-29 20:05:00,80.6,72.7,29.64,East,97,1.0,5.0,77,0.00,,---,0.01,VWS V14.01,2013-06-30 00:05:00,
2013-06-29 20:10:00,80.5,73.0,29.64,NE,56,1.0,5.0,78,0.00,,---,0.01,VWS V14.01,2013-06-30 00:10:00,
2013-06-29 20:15:00,80.1,73.0,29.64,SE,133,0.0,5.0,79,0.00,,---,0.01,VWS V14.01,2013-06-30 00:15:00,
2013-06-29 20:20:00,80.0,73.3,29.65,East,79,0.0,5.0,80,0.00,,---,0.01,VWS V14.01,2013-06-30 00:20:00,
2013-06-29 20:25:00,79.8,73.4,29.65,NE,36,0.0,5.0,81,0.00,,---,0.01,VWS V14.01,2013-06-30 00:25:00,
2013-06-29 20:30:00,79.4,73.4,29.65,NE,36,0.0,5.0,82,0.00,,---,0.01,VWS V14.01,2013-06-30 00:30:00,
2013-06-29 20:35:00,79.2,73.6,29.65,East,96,0.0,2.0,83,0.00,,---,0.01,VWS V14.01,2013-06-30 00:35:00,
2013-06-29 20:40:00,78.9,73.7,29.65,ESE,102,2.0,3.0,84,0.00,,---,0.01,VWS V14.01,2013-06-30 00:40:00,
2013-06-29 20:45:00,78.7,73.5,29.65,ESE,107,0.0,3.0,84,0.00,,---,0.01,VWS V14.01,2013-06-30 00:45:00,
2013-06-29 20:50:00,78.5,73.6,29.65,ESE,107,0.0,3.0,85,0.00,,---,0.01,VWS V14.01,2013-06-30 00:50:00,
2013-06-29 20:55:00,78.4,73.9,29.65,ENE,77,0.0,3.0,86,0.00,,---,0.01,VWS V14.01,2013-06-30 00:55:00,
2013-06-29 21:00:00,78.1,73.6,29.65,ENE,77,0.0,3.0,86,0.00,,---,0.01,VWS V14.01,2013-06-30 01:00:00,
2013-06-29 21:05:00,77.8,73.6,29.65,ENE,77,0.0,1.0,87,0.00,,---,0.01,VWS V14.01,2013-06-30 01:05:00,
2013-06-29 21:10:00,77.4,73.6,29.65,East,83,0.0,2.0,88,0.00,,---,0.01,VWS V14.01,2013-06-30 01:10:00,
2013-06-29 21:15:00,77.1,73.6,29.66,East,83,0.0,2.0,89,0.00,,---,0.01,VWS V14.01,2013-06-30 01:15:00,
2013-06-29 21:20:00,77.1,73.6,29.66,East,83,0.0,2.0,89,0.00,,---,0.01,VWS V14.01,2013-06-30 01:20:00,
2013-06-29 21:25:00,77.1,73.9,29.66,East,83,0.0,2.0,90,0.00,,---,0.01,VWS V14.01,2013-06-30 01:25:00,
2013-06-29 21:30:00,77.0,73.8,29.66,East,83,0.0,2.0,90,0.00,,---,0.01,VWS V14.01,2013-06-30 01:30:00,
2013-06-29 21:35:00,76.8,74.0,29.66,East,83,0.0,0.0,91,0.00,,---,0.01,VWS V14.01,2013-06-30 01:35:00,
2013-06-29 21:40:00,76.6,73.8,29.66,East,83,0.0,0.0,91,0.00,,---,0.01,VWS V14.01,2013-06-30 01:40:00,
2013-06-29 21:45:00,76.5,74.0,29.66,East,83,0.0,0.0,92,0.00,,---,0.01,VWS V14.01,2013-06-30 01:45:00,
2013-06-29 21:50:00,76.4,73.9,29.66,East,83,0.0,0.0,92,0.00,,---,0.01,VWS V14.01,2013-06-30 01:50:00,
2013-06-29 21:55:00,76.1,73.9,29.67,East,83,0.0,0.0,93,0.00,,---,0.01,VWS V14.01,2013-06-30 01:55:00,
2013-06-29 22:00:00,76.0,73.8,29.67,East,83,0.0,1.0,93,0.00,,---,0.01,VWS V14.01,2013-06-30 02:00:00,
2013-06-29 22:05:00,76.0,74.2,29.67,East,83,0.0,0.0,94,0.00,,---,0.01,VWS V14.01,2013-06-30 02:05:00,
2013-06-29 22:10:00,75.9,74.1,29.67,East,83,0.0,0.0,94,0.00,,---,0.01,VWS V14.01,2013-06-30 02:10:00,
2013-06-29 22:15:00,75.9,74.1,29.67,East,83,0.0,0.0,94,0.00,,---,0.01,VWS V14.01,2013-06-30 02:15:00,
2013-06-29 22:20:00,75.8,74.3,29.67,East,83,0.0,0.0,95,0.00,,---,0.01,VWS V14.01,2013-06-30 02:20:00,
2013-06-29 22:25:00,76.0,74.5,29.67,East,83,0.0,0.0,95,0.00,,---,0.01,VWS V14.01,2013-06-30 02:25:00,
2013-06-29 22:30:00,76.2,74.3,29.67,East,94,0.0,2.0,94,0.00,,---,0.01,VWS V14.01,2013-06-30 02:30:00,
2013-06-29 22:35:00,76.2,74.3,29.67,East,94,0.0,1.0,94,0.00,,---,0.01,VWS V14.01,2013-06-30 02:35:00,
2013-06-29 22:40:00,76.2,74.3,29.67,East,93,0.0,1.0,94,0.00,,---,0.01,VWS V14.01,2013-06-30 02:40:00,
2013-06-29 22:45:00,76.1,74.2,29.68,East,93,0.0,1.0,94,0.00,,---,0.01,VWS V14.01,2013-06-30 02:45:00,
2013-06-29 22:50:00,76.0,74.2,29.67,East,94,0.0,1.0,94,0.00,,---,0.01,VWS V14.01,2013-06-30 02:50:00,
2013-06-29 22:55:00,76.0,74.2,29.67,East,93,0.0,1.0,94,0.00,,---,0.01,VWS V14.01,2013-06-30 02:55:00,
2013-06-29 23:00:00,75.8,73.9,29.68,East,93,0.0,1.0,94,0.00,,---,0.01,VWS V14.01,2013-06-30 03:00:00,
2013-06-29 23:05:00,75.8,74.3,29.68,East,94,0.0,1.0,95,0.00,,---,0.01,VWS V14.01,2013-06-30 03:05:00,
2013-06-29 23:10:00,75.9,74.4,29.67,East,96,0.0,1.0,95,0.00,,---,0.01,VWS V14.01,2013-06-30 03:10:00,
2013-06-29 23:15:00,76.1,74.2,29.67,East,95,0.0,1.0,94,0.00,,---,0.01,VWS V14.01,2013-06-30 03:15:00,
2013-06-29 23:20:00,76.1,74.2,29.68,East,101,0.0,1.0,94,0.00,,---,0.01,VWS V14.01,2013-06-30 03:20:00,
2013-06-29 23:25:00,76.1,74.2,29.68,East,101,0.0,1.0,94,0.00,,---,0.01,VWS V14.01,2013-06-30 03:25:00,
2013-06-29 23:30:00,76.1,74.2,29.68,ESE,113,0.0,2.0,94,0.00,,---,0.01,VWS V14.01,2013-06-30 03:30:00,
2013-06-29 23:35:00,76.2,74.0,29.68,ESE,113,0.0,0.0,93,0.00,,---,0.01,VWS V14.01,2013-06-30 03:35:00,
2013-06-29 23:40:00,76.2,74.0,29.68,ESE,113,0.0,0.0,93,0.00,,---,0.01,VWS V14.01,2013-06-30 03:40:00,
2013-06-29 23:45:00,76.2,74.0,29.68,ESE,110,1.0,1.0,93,0.00,,---,0.01,VWS V14.01,2013-06-30 03:45:00,
2013-06-29 23:50:00,76.3,74.1,29.68,ESE,110,0.0,1.0,93,0.00,,---,0.01,VWS V14.01,2013-06-30 03:50:00,
2013-06-29 23:55:00,76.4,73.9,29.69,East,80,0.0,3.0,92,0.00,,---,0.01,VWS V14.01,2013-06-30 03:55:00,